#timestamp,LO_Frequency,Hit,StdDev 
1510174815.7,286046998.0,N
1510174835.5,286046997.8,N
1510174855.3,286046996.5,N
1510174875.2,286046996.6,N
1510174895.0,286046998.0,N
1510174895.9,286046998.0,N
1510174915.8,286046997.9,N
1510174935.6,286046995.4,N
1510174955.4,286046994.9,Y
1510174975.3,286046998.8,P
1510174995.1,286046999.3,N
1510175015.9,286046998.7,N
1510175035.7,286046997.0,Y
1510175055.5,286047001.0,P
1510175075.4,286046998.8,N
1510175095.2,286046999.2,N
1510175115.0,286046998.2,N
1510175115.9,286046998.2,N
1510175135.8,286047001.0,N
1510175155.6,286047000.0,N
1510175175.5,286046999.3,N
1510175195.3,286047001.1,N
1510175215.1,286047000.7,N
1510175235.9,286046998.1,N
1510175255.7,286047000.3,N
1510175275.5,286046998.4,N
1510175295.4,286046998.3,N
1510175315.2,286047000.9,N
1510175335.0,286046999.0,N
1510175336.0,286046999.0,N
1510175355.8,286046999.4,N
1510175375.6,286046997.4,N
1510175395.5,286046999.1,N
1510175415.3,286046999.2,N
1510175435.1,286046999.3,N
1510175455.9,286046999.4,N
1510175475.7,286046999.5,N
1510175495.5,286046997.2,N
1510175515.4,286046997.3,N
1510175535.2,286046996.8,N
1510175555.1,286046997.6,N
1510175556.0,286046997.6,N
1510175575.8,286046997.8,N
1510175595.6,286046997.5,N
1510175615.5,286046997.4,N
1510175635.3,286046998.0,N
1510175655.2,286046995.4,Y
1510175675.9,286046996.8,P
1510175695.7,286046997.3,N
1510175715.6,286046998.5,N
1510175735.4,286046999.3,N
1510175755.2,286046998.5,N
1510175775.1,286046999.4,N
1510175776.0,286046999.4,N
1510175795.8,286047000.4,N
1510175815.7,286047000.3,N
1510175835.5,286046998.5,N
1510175855.3,286046998.6,N
1510175875.2,286046998.9,N
1510175895.0,286046998.9,N
1510175895.9,286046998.9,N
1510175915.7,286046998.7,N
1510175935.6,286046998.1,N
1510175955.4,286047001.2,N
1510175975.3,286047001.1,N
1510175995.1,286047000.6,N
1510175996.0,286047000.6,N
1510176015.8,286047000.9,N
1510176035.7,286046999.7,N
1510176055.5,286047002.5,N
1510176075.3,286047002.5,N
1510176095.2,286047000.2,N
1510176115.0,286047000.2,N
1510176115.9,286047000.2,N
1510176135.8,286047002.5,N
1510176155.6,286047003.3,N
1510176175.4,286047003.5,N
1510176195.3,286047001.9,N
1510176215.1,286047002.0,N
1510176235.8,286047000.6,N
1510176255.7,286047000.5,N
1510176275.5,286047000.1,N
1510176295.4,286047002.3,N
1510176315.2,286047004.3,N
1510176335.0,286047004.4,N
1510176335.9,286047004.4,N
1510176355.8,286047002.2,N
1510176375.6,286047004.0,N
1510176395.4,286047003.3,N
1510176415.3,286047001.3,N
1510176435.1,286047004.1,N
1510176455.9,286047004.0,N
1510176475.7,286047004.2,N
1510176495.5,286047004.4,N
1510176515.4,286047001.5,N
1510176535.2,286047001.7,N
1510176555.0,286047002.1,N
1510176555.9,286047002.1,N
1510176575.8,286047004.0,N
1510176595.6,286046999.9,N
1510176615.5,286047002.3,N
1510176635.3,286046999.7,N
1510176655.1,286047002.0,N
1510176675.9,286047004.3,N
1510176695.7,286047003.8,N
1510176715.5,286047005.0,Y
1510176735.4,286047002.6,P
1510176755.2,286047001.5,P
1510176775.1,286047004.3,P
1510176776.0,286047004.3,Y
1510176795.8,286047000.6,P
1510176815.6,286047000.6,N
1510176835.5,286046999.9,N
1510176855.3,286046998.1,N
1510176875.2,286046998.1,N
1510176895.9,286047000.5,N
1510176915.7,286046998.1,N
1510176935.6,286047000.9,N
1510176955.4,286046999.8,N
1510176975.2,286047002.3,N
1510176995.1,286047002.6,N
1510176996.0,286047002.6,N
1510177015.8,286047001.9,N
1510177035.7,286047004.0,N
1510177055.5,286047002.5,N
1510177075.3,286047002.2,N
1510177095.2,286047000.5,N
1510177115.0,286047000.5,N
1510177115.9,286047000.5,N
1510177135.7,286047001.2,N
1510177155.6,286046998.7,N
1510177175.4,286046998.6,N
1510177195.3,286047002.4,N
1510177215.1,286047002.3,N
1510177216.0,286047002.3,N
1510177235.8,286047000.2,N
1510177255.7,286047001.2,N
1510177275.5,286046996.9,N
1510177295.3,286046997.0,N
1510177315.2,286046996.5,N
1510177335.0,286046999.0,N
1510177335.9,286046999.0,N
1510177355.8,286046998.4,N
1510177375.6,286047000.8,N
1510177395.4,286046998.8,N
1510177415.3,286046998.5,N
1510177435.1,286047000.1,N
1510177455.9,286047000.6,N
1510177475.7,286047000.0,N
1510177495.5,286046999.9,N
1510177515.4,286046998.2,N
1510177535.2,286047000.6,N
1510177555.0,286047000.4,N
1510177556.0,286047000.4,N
1510177575.8,286047001.0,N
1510177595.6,286047000.9,N
1510177615.5,286047000.8,N
1510177635.3,286047001.0,N
1510177655.1,286047002.7,N
1510177675.9,286047001.2,N
1510177695.7,286047000.4,N
1510177715.6,286047000.2,N
1510177735.4,286047002.6,N
1510177755.2,286047002.8,N
1510177775.1,286047002.0,N
1510177776.0,286047002.0,N
1510177795.8,286047001.5,N
1510177815.6,286047001.8,N
1510177835.5,286046999.7,N
1510177855.3,286047001.9,N
1510177875.2,286047002.3,N
1510177895.9,286047002.1,N
1510177915.7,286047000.0,N
1510177935.6,286047000.4,N
1510177955.4,286047000.9,N
1510177975.2,286046998.1,N
1510177995.1,286046999.6,N
1510177996.0,286046999.6,N
1510178015.8,286046996.5,N
1510178035.7,286046999.5,N
1510178055.5,286046999.1,N
1510178075.3,286046998.2,N
1510178095.2,286047000.6,N
1510178115.0,286047000.4,N
1510178115.9,286047000.4,N
1510178135.7,286047001.0,N
1510178155.6,286047001.1,N
1510178175.4,286046999.7,N
1510178195.3,286046999.8,N
1510178215.1,286046999.7,N
1510178216.0,286046999.7,N
1510178235.8,286047002.1,N
1510178255.7,286047002.2,N
1510178275.5,286047004.0,N
1510178295.3,286047003.8,N
1510178315.2,286047003.0,N
1510178335.0,286047003.2,N
1510178335.9,286047003.2,N
1510178355.8,286047003.8,N
1510178375.6,286047004.4,N
1510178395.4,286047003.8,N
